Home > Weather > Brades > Past weeks

Flag for Montserrat Past Weather in Brades, Montserrat — Yesterday and Last 2 Weeks

Now
82 °F

Partly sunny.


Feels Like: 91 °F
Forecast: 81 / 85 °F
Wind: 18 mph from Northeast

Location: Vc Bird International Antigua Airport

Current Time: Jul 30, 2016 at 11:04:26 AM

Latest Report: Jul 30, 2016 at 10:00 AM


Visibility: N/A

Pressure: 29.98 "Hg

Humidity: 84%

Dew Point: 77 °F

Location of BradesLocation

Past Weather in Brades — Graph

°F

Brades Temperature Yesterday

Maximum temperature yesterday: 88 °F (at 11:00 AM)
Minimum temperature yesterday: 81 °F (at 2:00 AM)
Average temperature yesterday: 84 °F

High & Low Weather Summary for the Past Weeks

 TemperatureHumidityPressure
High88 °F (Jul 15, 11:00 AM)94% (Jul 30, 8:00 AM)30.07 "Hg (Jul 30, 8:00 AM)
Low77 °F (Jul 18, 4:00 PM)55% (Jul 18, 11:00 AM)29.92 "Hg (Jul 30, 4:00 AM)
Average83 °F74%30.00 "Hg
* Reported Jul 15 9:00 AM — Jul 30 9:00 AM, Brades, Weather by CustomWeather, © 2016

Note: Actual official high and low records may vary slightly from our data, if they occured in-between our weather recording intervals... More about our weather records

Advertising

Brades Weather History for the Previous 24 Hours

Scroll right to see more
 ConditionsComfort  
Time TempWeatherWind HumidityBarometerVisibility
9:00 AM
Sat, Jul 30
81 °FScattered clouds.17 mph84%29.98 "HgN/A
8:00 AM77 °FSprinkles. Partly sunny.16 mph94%29.98 "HgN/A
7:00 AM77 °FRain showers. Partly sunny.21 mph89%29.98 "HgN/A
6:00 AM81 °FBroken clouds.15 mph84%29.95 "HgN/A
5:00 AM82 °FPartly cloudy.10 mph74%29.95 "HgN/A
4:00 AM82 °FPassing clouds.13 mph70%29.92 "HgN/A
3:00 AM82 °FPassing clouds.14 mph70%29.95 "HgN/A
2:00 AM81 °FSprinkles. Partly cloudy.13 mph79%29.95 "HgN/A
1:00 AM82 °FPassing clouds.14 mph74%29.98 "HgN/A
12:00 AM82 °FPassing clouds.15 mph70%30.01 "HgN/A
11:00 PM
Fri, Jul 29
82 °FPassing clouds.18 mph74%30.01 "HgN/A
10:00 PM82 °FPassing clouds.15 mph79%30.01 "HgN/A
9:00 PM82 °FPassing clouds.15 mph79%30.01 "HgN/A
8:00 PM82 °FPassing clouds.14 mph79%29.98 "HgN/A
7:00 PM82 °FSprinkles. Passing clouds.12 mph74%29.98 "HgN/A
6:00 PM84 °FScattered clouds.12 mph70%29.95 "HgN/A
5:00 PM86 °FScattered clouds.13 mph66%29.95 "HgN/A
4:00 PM86 °FPartly sunny.15 mph66%29.95 "HgN/A
3:00 PM88 °FPassing clouds.15 mph62%29.98 "HgN/A
2:00 PM88 °FPassing clouds.14 mph62%29.98 "HgN/A
1:00 PM88 °FScattered clouds.13 mph66%29.98 "HgN/A
12:00 PM88 °FPassing clouds.15 mph62%30.01 "HgN/A
11:00 AM88 °FPassing clouds.15 mph62%30.01 "HgN/A
Weather by CustomWeather, © 2016

See weather overviewHow to use our weather pages